This demonstration page uses our WeatherBlox Daily Observations layout. Learn more.

Left ArrowRight Arrow

Hourly Observations for August 26, 2022

Temp ( °F °C ) Dew Point ( °F °C ) Humidity (%) Winds ( mph kmh ) Pressure ( in mb ) Visibility ( mi km ) Precip ( " mm )
12:55 am 00:55 Clear 71 21.4 63 17.2 77 77 Calm 30.12 1020 10 16 0.00 0.00
1:55 am 01:55 Clear 69 20.7 62 16.9 79 79 Calm 30.12 1020 10 16 0.00 0.00
2:55 am 02:55 Clear 68 20.2 62 16.4 79 79 Calm 30.11 1020 10 16 0.00 0.00
3:55 am 03:55 Mostly Cloudy 68 20.2 61 16.2 78 78 NE 6 9 30.09 1019 10 16 0.00 0.00
4:55 am 04:55 Mostly Cloudy 68 19.8 62 16.6 82 82 Calm 30.10 1019 10 16 0.00 0.00
5:55 am 05:55 Cloudy with Heavy Rain 67 19.6 63 17.2 86 86 ESE 3 6 30.09 1019 5 8 0.06 1.52
6:27 am 06:27 Partly Cloudy 66 19 64 18 94 94 ENE 2 4 30.09 1019 10 16 0.00 0.00
6:55 am 06:55 Mostly Cloudy 66 19 64 17.5 91 91 NE 3 6 30.10 1019 10 16 0.05 1.27
7:55 am 07:55 Mostly Sunny 67 19.2 63 17.3 89 89 ENE 6 9 30.12 1020 10 16 0.00 0.00
9:19 am 09:19 Mostly Cloudy with Light Rain 68 20 64 18 88 88 Calm 30.12 1020 10 16 0.00 0.00
9:28 am 09:28 Mostly Cloudy with Strong Thunderstorms 68 20 64 18 88 88 S 7 11 30.11 1020 7 11 0.00 0.00
9:55 am 09:55 Cloudy with Thunderstorms 67 19.4 65 18.2 93 93 E 6 9 30.11 1020 2 3 0.48 12.19
10:10 am 10:10 Cloudy with Rain 66 19 64 18 94 94 E 7 11 30.11 1020 8 13 0.00 0.00
10:55 am 10:55 Mostly Cloudy with Light Rain 67 19.6 65 18.6 94 94 E 3 6 30.11 1020 10 16 0.23 5.84
11:12 am 11:12 Mostly Cloudy 68 20 66 19 94 94 Calm 30.11 1020 10 16 0.00 0.00
11:55 am 11:55 Mostly Cloudy 70 21.1 67 19.7 92 92 SSE 7 11 30.10 1019 10 16 0.01 0.13
12:55 pm 12:55 Mostly Cloudy 73 22.8 68 19.9 84 84 SE 8 13 30.07 1018 10 16 0.00 0.00
1:55 pm 13:55 Mostly Cloudy 79 26.1 69 20.4 71 71 SE 12 19 30.04 1017 10 16 0.00 0.00
2:55 pm 14:55 Mostly Cloudy 80 26.8 69 20.8 70 70 SE 8 13 30.02 1017 10 16 0.00 0.00
3:55 pm 15:55 Mostly Cloudy 79 26.3 69 20.6 71 71 ESE 8 13 30.00 1016 10 16 0.00 0.00
4:55 pm 16:55 Mostly Cloudy 81 27 71 21.5 72 72 ESE 12 19 29.99 1016 10 16 0.00 0.00
5:55 pm 17:55 Mostly Cloudy 81 27.3 72 22 73 73 ESE 12 19 29.97 1015 10 16 0.00 0.00
6:55 pm 18:55 Mostly Cloudy 80 26.4 72 22.4 79 79 ESE 8 13 29.95 1014 10 16 0.00 0.00
7:55 pm 19:55 Mostly Cloudy 77 25 71 21.7 82 82 ESE 6 9 29.96 1014 10 16 0.00 0.00
8:55 pm 20:55 Cloudy 75 23.9 70 21 84 84 ESE 6 9 29.96 1014 10 16 0.00 0.00
9:55 pm 21:55 Mostly Cloudy 74 23.5 70 21 86 86 SE 12 19 29.96 1015 10 16 0.00 0.00
10:55 pm 22:55 Mostly Clear 74 23.2 69 20.7 86 86 SE 9 15 29.96 1014 10 16 0.00 0.00
11:55 pm 23:55 Partly Cloudy 73 22.9 68 20.2 85 85 SSE 10 17 29.94 1014 10 16 0.00 0.00

Powered by AerisWeather